Other Surface Observations
Issued by NWS Upton, NY

Home | Current Version | Previous Version | Text Only | Print | Product List | Glossary On
Versions: 1 2 3 4 5 6 7 8 9 10 11 12 13 14 15 16 17 18 19 20 21 22 23 24 25 26 27 28 29 30 31 32 33 34 35 36 37 38 39 40 41 42 43 44 45 46 47 48 49 50
000
SXUS51 KOKX 220457
OSOOKX
New York City Metropolitan Area Weather Roundup
National Weather Service New York NY
1200 AM EST THU FEB 22 2018

CITY           SKY/WX    TMP DP  RH WIND       PRES   REMARKS
Central Park   CLOUDY    59  47  64 VRB5      30.43R
LaGuardia Arpt CLOUDY    58  46  64 N9G21     30.39R
Kennedy Intl   CLOUDY    59  50  72 N12       30.40R
Newark Liberty CLOUDY    59  43  55 N13       30.40R
Teterboro Arpt CLOUDY    58  45  62 N9        30.39R
Bronx Bot Gard   N/A     57  46  67 N5        30.39F
Bronx Lehman C   N/A     57  46  67 N9          N/A
Queens College   N/A     59  50  72 NE7         N/A
Breezy Point     N/A     57 N/A N/A N7          N/A
Brooklyn Coll    N/A     61  46  59 N10         N/A
Staten Island    N/A     59  46  63 N8          N/A

>>>>>>>>>>>>>>>>>>>>>>>>>>>>>>>>> KEY <<<<<<<<<<<<<<<<<<<<<<<<<<<<<<<
> SKY/WX - Sky Condition/Present    : R : WCI - Wind Chill Index    <
>          Weather                  : E : VSB - Visibility in Miles <
> TMP    - Temperature in Deg F     : M : HX  - Heat Index          <
> DP     - Dew Point Temperature    : A : TC  - Temperature in      <
> RH     - Relative Humidity        : R :       Celsius             <
> WIND   - Direction/Speed (mph)    : K : VRB - Variable Wind Dir   <
> PRES   - Pressure (in Hg)         : S :                           <
>>>>>>>>>>>>>>>>>>>>>>>>>>>>>>>>> KEY <<<<<<<<<<<<<<<<<<<<<<<<<<<<<<<



USA.gov is the U.S. government's official web portal to all federal, state and local government web resources and services.